[[{"header":{"parameterUnit":"m.s-1","parameterCategory":1,"la1":30.2991,"la2":30.254,"lo1":-89.0895,"lo2":-89.0444,"dy":0.0017,"dx":0.0017,"nx":28,"ny":28,"refTime":"2025-09-02T09:00:00:Z","depth":0,"parameterNumber":2,"parameterNumberName":"U-component_of_WINDS"},"data":[0,0,0,0,0,0,0,0,0,0,0,0,0,0,0,0,0,0,0,0,0,0,0,0,0,0,0,0,0,0,0,0,0,0,0,0,0,0,0,0,0,0,0,0,0,0,0,0,0,0,0,0,0,0,0,0,0,0,-0.6444,-0.6444,0,-0.6477,-0.6477,-0.6478,-0.6474,-0.6473,-0.6473,-0.6472,-0.6508,-0.6509,-0.6511,0,0,0,0,0,0,0,0,0,0,0,0,0,-0.6378,-0.6379,-0.6444,-0.6444,-0.6444,-0.6477,-0.6477,-0.6478,-0.6474,-0.6473,-0.6473,-0.6472,-0.6507,-0.6509,-0.6511,0,0,0,0,0,0,0,0,0,0,0,0,0,-0.6409,-0.638,-0.6444,-0.6446,-0.6447,-0.6477,-0.6477,-0.6478,-0.6474,-0.6473,-0.6473,-0.6472,-0.6507,-0.6509,-0.6511,-0.654,0,0,-0.6518,-0.6518,0,0,0,0,0,0,0,0,-0.6407,-0.6411,-0.6446,-0.6446,-0.6447,-0.647,-0.6467,-0.6499,-0.6474,-0.6464,-0.6472,-0.6471,-0.6496,-0.6499,-0.6507,-0.6542,-0.6544,-0.6518,-0.6519,-0.652,-0.6521,0,0,0,0,0,0,0,-0.6405,-0.6409,-0.6457,-0.6446,-0.6447,-0.6447,-0.645,-0.6473,-0.6484,-0.6465,-0.6465,-0.6468,-0.6496,-0.6505,-0.6508,-0.6544,-0.6518,-0.652,-0.6521,-0.6522,-0.6606,-0.6607,0,0,0,0,0,0,-0.6402,-0.6408,-0.6456,-0.6458,-0.6424,-0.6448,-0.6452,-0.6464,-0.6484,-0.6486,-0.6469,-0.6468,-0.6502,-0.6505,-0.6509,-0.6546,-0.652,-0.6522,-0.6523,-0.6605,-0.6606,-0.6608,0,0,0,0,0,0,-0.64,-0.6406,-0.6454,-0.6433,-0.6439,-0.645,-0.6463,-0.6465,-0.6474,-0.6487,-0.6489,-0.6476,-0.6501,-0.6506,-0.6533,-0.6547,-0.6523,-0.6525,-0.6604,-0.6606,-0.6607,-0.6619,0,0,0,0,0,0,-0.6398,-0.6405,-0.6416,-0.6433,-0.644,-0.6477,-0.6464,-0.6466,-0.6477,-0.6476,-0.6494,-0.6496,-0.6501,-0.653,-0.6535,-0.655,-0.6527,-0.6603,-0.6605,-0.6607,-0.6618,-0.6621,-0.6624,0,0,0,0,0,-0.6396,-0.6419,-0.6417,-0.6423,-0.6454,-0.6478,-0.6482,-0.6487,-0.6478,-0.649,-0.6499,-0.6496,-0.6545,-0.6532,-0.6538,-0.6554,-0.6602,-0.6604,-0.6606,-0.6617,-0.6621,-0.6624,0,0,0,0,0,0,-0.6404,-0.6421,-0.6419,-0.6448,-0.6461,-0.6477,-0.6492,-0.6491,-0.6507,-0.6506,-0.6511,-0.6515,-0.6542,-0.6551,-0.6537,-0.6584,-0.6572,-0.6576,-0.6578,-0.6582,-0.6585,-0.6583,-0.6528,0,0,0,0,0,-0.6409,-0.6426,-0.644,-0.6464,-0.6471,-0.648,-0.6491,-0.6493,-0.6508,-0.6514,-0.6525,-0.6539,-0.6558,-0.657,-0.6588,-0.6619,-0.6623,-0.6632,-0.6635,-0.6638,-0.6641,-0.6659,-0.6664,-0.6615,-0.6614,-0.6614,0,0,-0.6419,-0.6431,-0.6442,-0.6466,-0.6477,-0.6496,-0.6485,-0.6506,-0.652,-0.6517,-0.6543,-0.6552,-0.6568,-0.6597,-0.6611,-0.6605,-0.6656,-0.6641,-0.6642,-0.6644,-0.6662,-0.6666,-0.6671,-0.6616,-0.6616,-0.6615,0,0,-0.6449,-0.6458,-0.648,-0.6491,-0.6508,-0.6514,-0.6519,-0.6535,-0.654,-0.6567,-0.6565,-0.6582,-0.6614,-0.6626,-0.6637,-0.6671,-0.667,-0.6677,-0.6693,-0.6711,-0.6714,-0.6718,-0.6731,-0.6736,-0.668,-0.668,-0.668,0,-0.646,-0.6488,-0.6491,-0.6512,-0.6523,-0.6521,-0.6544,-0.6554,-0.6576,-0.6584,-0.6577,-0.6618,-0.6629,-0.6661,-0.667,-0.6678,-0.6685,-0.6675,-0.6713,-0.6717,-0.672,-0.6733,-0.6738,-0.6681,-0.668,-0.668,-0.668,0,-0.6502,-0.6521,-0.6536,-0.6557,-0.657,-0.6591,-0.6599,-0.6612,-0.6613,-0.662,-0.6647,-0.666,-0.6681,-0.6689,-0.669,-0.6722,-0.6718,-0.6712,-0.6701,-0.6726,-0.6738,-0.6743,-0.6682,-0.6681,-0.6681,-0.6681,0,0,-0.6537,-0.656,-0.6565,-0.6575,-0.6593,-0.6609,-0.663,-0.6651,-0.6662,-0.6677,-0.6696,-0.6723,-0.6718,-0.673,-0.6732,-0.6748,-0.6775,-0.674,-0.6741,-0.6747,-0.6812,-0.6817,-0.6823,-0.6774,-0.6775,-0.6775,-0.6811,0,-0.6569,-0.6607,-0.6611,-0.6645,-0.6664,-0.6662,-0.6681,-0.6694,-0.6701,-0.6719,-0.6726,-0.6746,-0.6737,-0.6745,-0.6759,-0.6769,-0.6789,-0.6766,-0.6793,-0.6793,-0.679,-0.6829,-0.6834,-0.6868,-0.6816,-0.6817,-0.6817,0,-0.6612,-0.6628,-0.6664,-0.668,-0.6688,-0.6705,-0.6724,-0.674,-0.6756,-0.676,-0.6773,-0.6774,-0.6797,-0.6784,-0.6816,-0.6801,-0.6811,-0.6818,-0.6819,-0.6823,-0.6808,-0.6835,-0.6878,-0.6884,-0.6825,-0.6824,-0.6824,0,-0.6636,-0.6666,-0.6692,-0.67,-0.672,-0.6732,-0.674,-0.6755,-0.6767,-0.6784,-0.6792,-0.6811,-0.6822,-0.6837,-0.6844,-0.6833,-0.6876,-0.6863,-0.6881,-0.6881,-0.6891,-0.6891,-0.6938,-0.6896,-0.6896,-0.6896,-0.6896,0,-0.6672,-0.6694,-0.6703,-0.6719,-0.6745,-0.6749,-0.6774,-0.6782,-0.6795,-0.6813,-0.6813,-0.683,-0.6836,-0.6855,-0.6859,-0.6886,-0.6891,-0.6895,-0.6897,-0.6896,-0.6896,-0.6904,-0.6903,-0.6897,-0.6897,-0.6897,-0.6897,0,-0.6703,-0.671,-0.6738,-0.6754,-0.6759,-0.6777,-0.6791,-0.6806,-0.6813,-0.6836,-0.6841,-0.6852,-0.6874,-0.6881,-0.6907,-0.6911,-0.6942,-0.6941,-0.6937,-0.6937,-0.6955,-0.6954,-0.7011,-0.7019,-0.6971,-0.6971,-0.6972,0,-0.6727,-0.6744,-0.6761,-0.6773,-0.6782,-0.6801,-0.6814,-0.6819,-0.6832,-0.6851,-0.6865,-0.6886,-0.6903,-0.6938,-0.6948,-0.6969,-0.6969,-0.6987,-0.6972,-0.6971,-0.697,-0.697,-0.6972,-0.699,-0.6991,-0.6991,-0.6992,0,-0.6768,-0.677,-0.6788,-0.6807,-0.6822,-0.6837,-0.6852,-0.6861,-0.6869,-0.6883,-0.6905,-0.6919,-0.6945,-0.6967,-0.6988,-0.6997,-0.6996,-0.6996,-0.7002,-0.7002,-0.7,-0.7002,-0.6946,-0.6995,-0.6995,-0.6995,-0.6994,-0.6994,-0.6797,-0.6812,-0.6827,-0.6847,-0.6859,-0.6873,-0.6889,-0.6897,-0.6915,-0.6937,-0.6939,-0.6963,-0.6978,-0.7006,-0.7016,-0.7036,-0.7031,-0.7038,-0.704,-0.7043,-0.7045,-0.6995,-0.7039,-0.7039,-0.7039,-0.7039,-0.7039,0,-0.6839,-0.6848,-0.6866,-0.6887,-0.6903,-0.69,-0.6916,-0.693,-0.6951,-0.6965,-0.6982,-0.7008,-0.7029,-0.704,-0.7062,-0.7075,-0.7075,-0.708,-0.708,-0.7083,-0.7047,-0.7041,-0.708,-0.708,-0.708,-0.708,-0.708,-0.708,-0.6863,-0.6889,-0.6894,-0.6926,-0.6935,-0.6959,-0.6968,-0.6982,-0.6993,-0.7022,-0.7039,-0.7046,-0.706,-0.7082,-0.7101,-0.7104,-0.7113,-0.7119,-0.7122,-0.7089,-0.7085,-0.7081,-0.7075,-0.712,-0.712,-0.7155,-0.7156,-0.7156]},{"header":{"parameterUnit":"m.s-1","parameterCategory":1,"la1":30.2991,"la2":30.254,"lo1":-89.0895,"lo2":-89.0444,"dy":0.0017,"dx":0.0017,"nx":28,"ny":28,"refTime":"2025-09-02T09:00:00:Z","depth":0,"parameterNumber":3,"parameterNumberName":"V-component_of_WINDS"},"data":[0,0,0,0,0,0,0,0,0,0,0,0,0,0,0,0,0,0,0,0,0,0,0,0,0,0,0,0,0,0,0,0,0,0,0,0,0,0,0,0,0,0,0,0,0,0,0,0,0,0,0,0,0,0,0,0,0,0,2.1236,2.1237,0,2.1283,2.1284,2.1284,2.1265,2.1264,2.1263,2.1262,2.1309,2.1311,2.1313,0,0,0,0,0,0,0,0,0,0,0,0,0,2.1126,2.1128,2.1236,2.1237,2.1237,2.1283,2.1284,2.1285,2.1265,2.1264,2.1263,2.1261,2.1308,2.131,2.1313,0,0,0,0,0,0,0,0,0,0,0,0,0,2.1174,2.1129,2.1236,2.1233,2.1234,2.1283,2.1284,2.1285,2.1266,2.1264,2.1262,2.1261,2.1307,2.131,2.1314,2.1368,0,0,2.1324,2.1326,0,0,0,0,0,0,0,0,2.1171,2.1178,2.1233,2.1234,2.1234,2.1267,2.1262,2.1313,2.1266,2.1254,2.1262,2.126,2.1296,2.13,2.1313,2.137,2.1372,2.1324,2.1326,2.1328,2.1329,0,0,0,0,0,0,0,2.1168,2.1176,2.1255,2.1234,2.1234,2.1229,2.1234,2.1272,2.1283,2.1254,2.1253,2.1259,2.1296,2.1309,2.1314,2.1373,2.1324,2.1327,2.1329,2.1331,2.1475,2.1477,0,0,0,0,0,0,2.1165,2.1173,2.1253,2.1256,2.1198,2.1232,2.1238,2.1258,2.1283,2.1285,2.1261,2.1258,2.1304,2.131,2.1315,2.1379,2.1328,2.1331,2.1333,2.1473,2.1476,2.1478,0,0,0,0,0,0,2.1163,2.1172,2.1251,2.1214,2.1224,2.1236,2.1259,2.126,2.1273,2.1288,2.1289,2.1272,2.1303,2.131,2.1355,2.138,2.1333,2.1336,2.1471,2.1474,2.1477,2.1508,0,0,0,0,0,0,2.116,2.1172,2.1193,2.1215,2.1226,2.1291,2.126,2.1262,2.1279,2.1277,2.1299,2.1301,2.1302,2.135,2.1358,2.1384,2.1338,2.1469,2.1473,2.1476,2.1505,2.1511,2.1517,0,0,0,0,0,2.1156,2.12,2.1194,2.1204,2.1254,2.1293,2.1299,2.13,2.1282,2.1303,2.1312,2.1301,2.1376,2.1354,2.1364,2.1391,2.1467,2.1472,2.1475,2.1502,2.151,2.1517,0,0,0,0,0,0,2.1181,2.1203,2.1197,2.125,2.127,2.1289,2.1316,2.1309,2.1334,2.133,2.133,2.1335,2.138,2.139,2.1365,2.1444,2.1419,2.1425,2.1436,2.1444,2.145,2.1446,2.1341,0,0,0,0,0,2.1193,2.1224,2.1241,2.1286,2.1296,2.1305,2.1322,2.1321,2.1341,2.1349,2.1361,2.138,2.1408,2.1427,2.1453,2.1506,2.151,2.1529,2.1536,2.1541,2.1545,2.1572,2.158,2.1491,2.1491,2.1491,0,0,2.1217,2.1233,2.1253,2.1291,2.1307,2.1337,2.1312,2.1346,2.1368,2.1354,2.1396,2.1406,2.1427,2.1475,2.1497,2.1485,2.1571,2.1546,2.155,2.1552,2.1577,2.1585,2.1593,2.1494,2.1493,2.1493,0,0,2.1277,2.1293,2.1332,2.1347,2.137,2.1375,2.1384,2.1405,2.1411,2.1454,2.1443,2.1469,2.1518,2.1533,2.1547,2.1611,2.1601,2.162,2.1652,2.1678,2.1685,2.1691,2.1712,2.172,2.1625,2.1625,2.1625,0,2.1305,2.1351,2.1352,2.1387,2.1403,2.1392,2.143,2.1444,2.1475,2.1486,2.1472,2.1532,2.1546,2.1596,2.1612,2.1624,2.1633,2.1617,2.1684,2.169,2.1696,2.1716,2.1724,2.1627,2.1627,2.1626,2.1626,0,2.1383,2.1415,2.1443,2.1473,2.1493,2.1529,2.1534,2.1553,2.155,2.1556,2.1599,2.1615,2.1643,2.1656,2.1653,2.1705,2.1697,2.1684,2.1658,2.1706,2.1725,2.1733,2.163,2.1629,2.1628,2.1628,0,0,2.1461,2.1489,2.1499,2.1512,2.1536,2.156,2.1595,2.1623,2.1639,2.1661,2.1688,2.1729,2.1716,2.1732,2.1731,2.1754,2.1802,2.1738,2.1738,2.1748,2.1858,2.1867,2.1876,2.1795,2.1797,2.1798,2.1855,0,2.1521,2.1583,2.1584,2.164,2.1668,2.1657,2.1687,2.1704,2.1711,2.1735,2.1742,2.177,2.1752,2.1761,2.1784,2.1791,2.1823,2.1787,2.182,2.1821,2.1814,2.1886,2.1896,2.1949,2.1863,2.1864,2.1865,0,2.1601,2.1624,2.1682,2.17,2.1713,2.174,2.1764,2.1789,2.1807,2.181,2.1827,2.1822,2.1856,2.183,2.1876,2.1851,2.1864,2.187,2.1872,2.1874,2.1845,2.1888,2.1966,2.1974,2.1877,2.1876,2.1875,0,2.1649,2.1695,2.1736,2.1747,2.1769,2.1788,2.1798,2.1816,2.1832,2.1853,2.1864,2.1889,2.1903,2.1922,2.1923,2.1905,2.1968,2.1943,2.197,2.197,2.1983,2.1982,2.2063,2.1994,2.1994,2.1994,2.1994,0,2.1716,2.1752,2.1757,2.1782,2.1821,2.1822,2.186,2.1869,2.1884,2.1909,2.1901,2.1925,2.1926,2.195,2.1951,2.1987,2.1994,2.1996,2.1996,2.1996,2.1996,2.2004,2.2,2.1996,2.1996,2.1995,2.1995,0,2.1776,2.1782,2.1825,2.1843,2.1848,2.1876,2.189,2.1913,2.1918,2.195,2.1958,2.1966,2.1993,2.1997,2.2029,2.203,2.2073,2.2069,2.2067,2.2065,2.2092,2.2088,2.218,2.2191,2.2116,2.2117,2.2118,0,2.1818,2.1845,2.1866,2.1882,2.1893,2.192,2.1936,2.1937,2.1954,2.1976,2.1996,2.2023,2.2044,2.2089,2.2097,2.2121,2.2117,2.2147,2.212,2.2119,2.2115,2.2113,2.2115,2.2152,2.2153,2.2153,2.2154,0,2.1891,2.1892,2.1916,2.1941,2.1961,2.198,2.1998,2.2012,2.2015,2.2034,2.2062,2.2079,2.2111,2.2137,2.2161,2.217,2.2162,2.2162,2.2169,2.2169,2.2166,2.2166,2.2079,2.216,2.2159,2.2159,2.2158,2.2158,2.1942,2.1965,2.1982,2.2009,2.2023,2.204,2.2061,2.2069,2.2093,2.2119,2.2118,2.2148,2.2165,2.2195,2.2206,2.2229,2.2219,2.223,2.2232,2.2235,2.2236,2.2163,2.2234,2.2233,2.2233,2.2233,2.2233,0,2.2013,2.2023,2.2048,2.2073,2.2094,2.2085,2.2104,2.2122,2.2149,2.2165,2.2186,2.2217,2.2242,2.2251,2.2275,2.2291,2.2288,2.2298,2.2296,2.2297,2.2245,2.2236,2.23,2.23,2.23,2.23,2.23,2.23,2.2052,2.209,2.2093,2.2136,2.2146,2.2176,2.2188,2.2202,2.2215,2.225,2.2271,2.2277,2.229,2.2314,2.2336,2.2338,2.2347,2.2357,2.2358,2.2308,2.2301,2.2295,2.2286,2.236,2.236,2.2408,2.2408,2.2409]}]]